Regional Weather Roundup
Issued by NWS

Home | Current Version | Previous Version | Text Only | Print | Product List | Glossary On
Versions: 1 2 3 4 5 6 7 8 9 10 11 12 13 14 15 16 17 18 19 20 21 22 23 24 25 26 27 28 29 30 31 32 33 34 35 36 37 38 39 40 41 42 43 44 45 46 47 48 49 50
000
ASUS45 KPSR 251010
RWRAZ

ARIZONA HOURLY REGIONAL WEATHER ROUNDUP
NATIONAL WEATHER SERVICE PHOENIX AZ
300 AM MST SUN FEB 25 2018

NOTE: FAIR INDICATES FEW OR NO CLOUDS BELOW 12,000 FEET WITH NO
SIGNIFICANT WEATHER AND/OR OBSTRUCTIONS TO VISIBILITY.

AZZ001>003-036-251100-
NORTHWEST ARIZONA

CITY           SKY/WX    TMP DP  RH WIND       PRES   REMARKS
BULLHEAD CITY  CLEAR     41   0  17 CALM      30.17S
KINGMAN        CLEAR     28  -1  28 N5        30.13R WCI  23
$$

AZZ004>008-015-016-018-251100-
NORTH CENTRAL ARIZONA

CITY           SKY/WX    TMP DP  RH WIND       PRES   REMARKS
GRAND CANYON   CLOUDY    19  14  81 SW3       30.05R
WILLIAMS       CLOUDY    19   1  45 W7        30.02S WCI  10
PRESCOTT       CLEAR     25   8  48 W3        30.09S
FLAGSTAFF      PTCLDY    10   4  76 CALM      30.02F
PAYSON         CLEAR     27  12  54 NW5       30.08S WCI  21
PAGE           CLEAR     32  19  58 CALM      30.04S
$$

AZZ009>014-017-251100-
NORTHEAST ARIZONA

CITY           SKY/WX    TMP DP  RH WIND       PRES   REMARKS
WINSLOW        PTCLDY    21  12  68 SW10      30.05S WCI  10
SAINT JOHNS    CLEAR     32   8  36 W18G25    30.01R WCI  20
WINDOW ROCK    CLOUDY    28  11  48 W17       29.96S WCI  16
SHOW LOW       CLEAR     25  14  63 SW12      30.05R WCI  14
$$

AZZ540-542>544-546-548-251100-
GREATER PHOENIX AREA

CITY           SKY/WX    TMP DP  RH WIND       PRES   REMARKS
PHOENIX        CLEAR     43  18  36 E5        30.11S
BUCKEYE        CLEAR     36  14  41 N5        30.13F WCI  32
LUKE AFB       CLEAR     38  19  47 N3        30.11S
SCOTTSDALE     CLEAR     38  22  52 CALM      30.13S
MESA-GATEWAY   CLEAR     35  19  50 SE6       30.14R WCI  30
$$

AZZ539-553-251100-
SOUTHWEST MARICOPA COUNTY AND PINAL COUNTY

CITY           SKY/WX    TMP DP  RH WIND       PRES   REMARKS
CASA GRANDE    NOT AVBL
GILA BEND      FAIR      39  12  33 SE8       30.12S WCI  33
$$

AZZ503-504-507>509-251100-
SOUTHEAST ARIZONA

CITY           SKY/WX    TMP DP  RH WIND       PRES   REMARKS
TUCSON         CLEAR     36  24  62 SE7       30.11F WCI  30
DAVIS-MONTHAN  CLEAR     33  24  67 SE6       30.09F WCI  28
NOGALES        CLEAR     32  16  51 E6        30.09F WCI  26
SIERRA VISTA   CLEAR     35   8  32 CALM      30.08F
DOUGLAS        CLEAR     27  16  63 E5        30.07F WCI  22
SAFFORD        CLEAR     29  21  72 CALM      30.07S
$$

AZZ532-251100-
SOUTHWEST ARIZONA

CITY           SKY/WX    TMP DP  RH WIND       PRES   REMARKS
YUMA           CLEAR     43  17  35 CALM      30.13F
$$

CAZ041-043-047-048-061-525>527-560>570-251100-
SOUTHERN CALIFORNIA

CITY           SKY/WX    TMP DP  RH WIND       PRES   REMARKS
DOWNTOWN L.A.  CLEAR     48  32  53 VRB3      30.17F
L.A. AIRPORT   PTCLDY    47  36  65 NE7       30.18F
SAN DIEGO      CLEAR     49  31  49 E5        30.21S
BURBANK        CLEAR     49  25  39 NE7       30.16S
ONTARIO        CLEAR     40  29  64 N3        30.18S
RIVERSIDE      CLEAR     40  30  67 SE3       30.18F
PALM SPRINGS   CLEAR     49  16  26 CALM      30.19R
EL CENTRO NAS  CLEAR     48  18  30 N5        30.17R
IMPERIAL       CLEAR     45  19  35 NW6       30.15R
BLYTHE         CLEAR     42   6  22 NW5       30.14F
NEEDLES        CLEAR     42   0  17 VRB5      30.17R
$$

NVZ020-UTZ003-251100-
SOUTHERN NEVADA-UTAH

CITY           SKY/WX    TMP DP  RH WIND       PRES   REMARKS
LAS VEGAS      CLEAR     47  14  26 N22G29    30.16R
SALT LAKE CITY MOCLDY    29  18  63 W15       30.09R WCI  18
$$

NMZ009-TXZ055-251100-
NEW MEXICO-WEST TEXAS

CITY           SKY/WX    TMP DP  RH WIND       PRES   REMARKS
ALBUQUERQUE    CLEAR     29  11  47 NW7       29.97F WCI  22
EL PASO        CLEAR     42  10  27 S9        30.03F
$$


........................KEY........................
SKY/WX - SKY CONDITION/WEATHER
TMP    - TEMPERATURE IN FAHRENHEIT
DP     - DEW POINT IN FAHRENHEIT
RH     - RELATIVE HUMIDITY IN PERCENT
WIND   - DIRECTION AND SPEED IN MILES PER HOUR (MPH)
VRB    - VARIABLE WIND DIRECTION
PRES   - MEAN SEA LEVEL PRESSURE IN INCHES OF MERCURY
         F - FALLING PRESSURE   R - RISING PRESSURE
         S - STEADY PRESSURE
VSB    - VISIBILITY IN MILES
HX     - HEAT INDEX IN FAHRENHEIT
WCI    - WIND CHILL INDEX IN FAHRENHEIT
TC     - TEMPERATURE IN CELSIUS WHICH IS ALSO KNOWN AS
         TEMPERATURE IN CENTIGRADE
AFB    - AIR FORCE BASE
         LUKE AFB IS LUKE AIR FORCE BASE
         DAVIS-MONTHAN IS DAVIS-MONTHAN AIR FORCE BASE
NAS    - NAVAL AIR STATION
         EL CENTRO NAS IS EL CENTRO NAVAL AIR STATION
N/A    - NOT AVAILABLE




USA.gov is the U.S. government's official web portal to all federal, state and local government web resources and services.